W0KHZ Weather Reports


time (UTC)temp
F
wind
direction
speed
knots
gust
knots
rain 1hr
in
rain 24hr
in
rain mn
in
humidity
%
barometer
mb
20260831030534 72 162 0.0 2.6 0.00 0.00 0.00 87 1040.0
20260831030031 72 0.0 0.0 0.00 0.00 0.00 88 1040.0
20260831025527 71 0.0 0.0 0.00 0.00 0.00 88 1040.2
20260831025025 71 0.0 0.0 0.00 0.00 0.00 88 1040.1
20260831024523 71 0.0 0.0 0.00 0.00 0.00 88 1040.2
20260831024020 71 163 0.0 0.9 0.00 0.00 0.00 88 1040.2
20260831023557 71 0.0 0.0 0.00 0.00 0.00 88 1040.2
20260831023054 71 0.0 0.0 0.00 0.00 0.00 88 1040.4
20260831022530 71 163 0.0 0.9 0.00 0.00 0.00 88 1040.4
20260831022026 71 163 0.0 2.6 0.00 0.00 0.00 88 1040.4
20260831021524 71 0.0 0.0 0.00 0.00 0.00 88 1040.4
20260831021021 71 163 0.0 2.6 0.00 0.00 0.00 87 1040.3
20260831020518 72 163 0.0 1.7 0.00 0.00 0.00 87 1040.3
20260831020035 72 163 0.0 1.7 0.00 0.00 0.00 87 1040.4
20260831015531 72 163 0.0 0.9 0.00 0.00 0.00 86 1040.4
20260831015027 72 0.0 0.0 0.00 0.00 0.00 86 1040.4
20260831014524 72 0.0 0.0 0.00 0.00 0.00 86 1040.3
20260831014042 72 142 0.0 0.9 0.00 0.00 0.00 85 1040.3
20260831013519 73 0.0 0.0 0.00 0.00 0.00 85 1040.4
20260831013017 73 0.0 0.0 0.00 0.00 0.00 85 1040.2
20260831012634 73 0.0 0.0 0.00 0.00 0.00 84 1040.1
20260831012051 73 0.0 0.0 0.00 0.00 0.00 84 1040.0
20260831011527 74 0.0 0.0 0.00 0.00 0.00 84 1039.9
20260831011045 74 0.0 0.0 0.00 0.00 0.00 84 1040.0
20260831010543 74 0.0 0.0 0.00 0.00 0.00 84 1040.0
20260831010020 74 0.0 0.0 0.00 0.00 0.00 84 1039.9
20260831005518 74 0.0 0.0 0.00 0.00 0.00 84 1039.8
20260831005055 74 0.0 0.0 0.00 0.00 0.00 84 1039.9
20260831004532 74 0.0 0.0 0.00 0.00 0.00 84 1039.9
20260831004028 74 0.0 0.0 0.00 0.00 0.00 84 1039.8
20260831003606 75 0.0 0.0 0.00 0.00 0.00 84 1039.7
20260831003023 75 0.0 0.0 0.00 0.00 0.00 84 1039.8
20260831002521 75 142 0.0 0.9 0.00 0.00 0.00 84 1039.7
20260831002018 75 0.0 0.0 0.00 0.00 0.00 84 1039.7
20260831001515 75 0.0 0.0 0.00 0.00 0.00 84 1039.7
20260831001032 75 0.0 0.0 0.00 0.00 0.00 84 1039.5
20260831000527 75 0.0 0.0 0.00 0.00 0.00 83 1039.4
20260831000025 76 0.0 0.0 0.00 0.00 0.00 83 1039.4
20260830235522 76 0.0 0.0 0.00 0.00 0.00 83 1039.3
20260830235020 76 0.0 0.0 0.00 0.00 0.00 83 1039.2
20260830234537 76 0.0 0.0 0.00 0.00 0.00 83 1038.9
20260830234034 76 0.0 0.0 0.00 0.00 0.00 82 1038.8
20260830233551 76 0.0 0.0 0.00 0.00 0.00 81 1038.7
20260830233027 77 142 0.0 0.9 0.00 0.00 0.00 81 1038.9
20260830232524 77 142 0.0 0.9 0.00 0.00 0.00 81 1038.9
20260830232021 77 140 0.0 0.9 0.00 0.00 0.00 80 1039.0
20260830231518 77 137 0.0 0.9 0.00 0.00 0.00 80 1039.0
20260830231015 78 137 0.0 0.9 0.00 0.00 0.00 79 1039.0
20260830230553 78 0.0 0.0 0.00 0.00 0.00 79 1038.9
20260830230049 79 137 0.0 0.9 0.00 0.00 0.00 79 1038.9
20260830225525 79 137 0.0 2.6 0.00 0.00 0.00 78 1038.8
20260830225022 79 137 0.9 1.7 0.00 0.00 0.00 78 1039.0
20260830224519 79 137 0.0 0.9 0.00 0.00 0.00 77 1039.0
20260830224017 80 0.0 0.0 0.00 0.00 0.00 77 1038.9
20260830223534 80 136 0.0 1.7 0.00 0.00 0.00 76 1038.7
20260830223031 80 127 1.7 3.5 0.00 0.00 0.00 77 1038.7
20260830222526 80 163 0.9 2.6 0.00 0.00 0.00 77 1038.8
20260830222023 80 130 0.9 1.7 0.00 0.00 0.00 77 1038.8
20260830221540 80 130 0.0 0.9 0.00 0.00 0.00 77 1038.9
20260830221017 80 130 0.9 1.7 0.00 0.00 0.00 76 1038.9
20260830220535 80 124 0.9 2.6 0.00 0.00 0.00 76 1038.9
20260830220032 81 113 0.9 1.7 0.00 0.00 0.00 76 1038.9
20260830215528 81 99 0.9 2.6 0.00 0.00 0.00 77 1038.7
20260830215025 81 67 0.0 0.9 0.00 0.00 0.00 76 1038.5
20260830214522 81 0.0 0.0 0.00 0.00 0.00 75 1038.5
20260830214020 82 0.0 0.0 0.00 0.00 0.00 74 1038.6
20260830213517 82 66 0.0 1.7 0.00 0.00 0.00 73 1038.5
20260830213034 82 101 0.9 1.7 0.00 0.00 0.00 73 1038.4
20260830212530 83 114 0.9 1.7 0.00 0.00 0.00 73 1038.4
20260830212047 83 124 0.9 2.6 0.00 0.00 0.00 73 1038.3
20260830211524 83 132 1.7 2.6 0.00 0.00 0.00 73 1038.3
20260830211021 83 155 1.7 5.2 0.00 0.00 0.00 73 1038.4
20260830210518 82 156 1.7 3.5 0.00 0.00 0.00 74 1038.4
20260830210035 82 153 0.9 1.7 0.00 0.00 0.00 75 1038.4
20260830205532 82 136 0.9 1.7 0.00 0.00 0.00 75 1038.6
20260830205027 82 119 0.0 1.7 0.00 0.00 0.00 75 1038.6
20260830204524 82 133 0.9 3.5 0.00 0.00 0.00 75 1038.8
20260830204021 82 185 0.0 1.7 0.00 0.00 0.00 75 1038.8
20260830203518 82 186 0.0 1.7 0.00 0.00 0.00 74 1038.7
20260830203015 82 186 0.0 0.9 0.00 0.00 0.00 75 1038.6
20260830202532 82 0.0 0.0 0.00 0.00 0.00 75 1038.7
20260830202028 82 186 0.0 1.7 0.00 0.00 0.00 74 1038.7
20260830201526 82 186 0.0 1.7 0.00 0.00 0.00 73 1038.8
20260830201023 82 0.0 0.0 0.00 0.00 0.00 73 1038.9
20260830200539 82 186 0.0 2.6 0.00 0.00 0.00 74 1039.1
20260830200016 82 164 1.7 2.6 0.00 0.00 0.00 75 1039.2
20260830195534 82 196 0.0 1.7 0.00 0.00 0.00 75 1039.1
20260830195050 82 196 0.0 1.7 0.00 0.00 0.00 75 1039.2
20260830194527 82 202 0.9 1.7 0.00 0.00 0.00 74 1039.3
20260830194024 82 203 0.0 0.9 0.00 0.00 0.00 74 1039.2
20260830193541 82 203 0.0 2.6 0.00 0.00 0.00 75 1039.2
20260830193018 82 131 0.9 2.6 0.00 0.00 0.00 75 1039.3
20260830192535 82 122 0.0 1.7 0.00 0.00 0.00 75 1039.3
20260830192053 81 165 0.9 2.6 0.00 0.00 0.00 75 1039.0
20260830191529 82 157 0.9 2.6 0.00 0.00 0.00 75 1039.1
20260830191026 82 136 0.0 0.9 0.00 0.00 0.00 75 1039.1
20260830190523 82 149 0.9 3.5 0.00 0.00 0.00 75 1039.0
20260830190020 81 169 0.9 2.6 0.00 0.00 0.00 76 1038.9
20260830185517 81 150 0.9 5.2 0.00 0.00 0.00 76 1038.9
20260830185034 81 142 0.9 2.6 0.00 0.00 0.00 76 1038.8
20260830184531 81 142 0.9 3.5 0.00 0.00 0.00 76 1039.0
20260830184027 81 142 0.9 2.6 0.00 0.00 0.00 76 1038.9
20260830183524 80 142 0.0 2.6 0.00 0.00 0.00 77 1038.9
20260830183041 80 142 0.0 1.7 0.00 0.00 0.00 77 1039.0
20260830182518 80 142 0.0 1.7 0.00 0.00 0.00 77 1039.1
20260830182016 80 142 0.9 2.6 0.00 0.00 0.00 77 1039.1
20260830181533 80 142 0.0 1.7 0.00 0.00 0.00 78 1039.3
20260830181048 79 135 0.9 2.6 0.00 0.00 0.00 79 1039.2
20260830180525 79 0.0 0.0 0.00 0.00 0.00 79 1039.2
20260830180022 79 0.0 0.0 0.00 0.00 0.00 80 1039.1
20260830175519 78 0.0 0.0 0.00 0.00 0.00 80 1039.1
20260830175016 78 0.0 0.0 0.00 0.00 0.00 80 1039.2
20260830174534 78 0.0 0.0 0.00 0.00 0.00 80 1039.1
20260830174030 78 0.0 0.0 0.00 0.00 0.00 80 1039.3
20260830173527 78 0.0 0.0 0.00 0.00 0.00 79 1039.3
20260830173024 78 0.0 0.0 0.00 0.00 0.00 79 1039.4
20260830172521 78 0.0 0.0 0.00 0.00 0.00 79 1039.8
20260830172018 79 100 0.0 0.9 0.00 0.00 0.00 79 1040.0
20260830171535 79 100 0.0 0.9 0.00 0.00 0.00 79 1040.3
20260830171033 79 100 0.0 2.6 0.00 0.00 0.00 79 1040.3
20260830170547 79 0.0 0.0 0.00 0.00 0.00 79 1040.3
20260830170045 79 0.0 0.0 0.00 0.00 0.00 79 1040.3
20260830165522 79 0.0 0.0 0.00 0.00 0.00 79 1040.2
20260830165019 79 0.0 0.0 0.00 0.01 0.00 79 1040.3
20260830164516 79 0.0 0.0 0.00 0.02 0.00 79 1039.9
20260830164034 79 0.0 0.0 0.00 0.03 0.00 79 1039.7
20260830163530 80 0.0 0.0 0.00 0.04 0.00 78 1039.6
20260830163046 80 0.0 0.0 0.00 0.07 0.00 77 1039.2
20260830162523 80 0.0 0.0 0.00 0.07 0.00 78 1038.9
20260830162021 80 0.0 0.0 0.00 0.07 0.00 77 1038.7
20260830161537 80 0.0 0.0 0.00 0.07 0.00 78 1038.8
20260830161035 80 0.0 0.0 0.00 0.07 0.00 78 1038.9
20260830160552 80 0.0 0.0 0.00 0.07 0.00 79 1038.8
20260830160028 79 0.0 0.0 0.00 0.07 0.00 80 1038.7
20260830155525 79 0.0 0.0 0.00 0.07 0.00 80 1038.7
20260830155022 79 0.0 0.0 0.00 0.07 0.00 80 1038.5
20260830154519 79 0.0 0.0 0.00 0.07 0.00 80 1038.6
20260830154017 78 0.0 0.0 0.00 0.07 0.00 80 1038.4
20260830153555 78 0.0 0.0 0.00 0.07 0.00 80 1038.4
20260830153031 78 0.0 0.0 0.00 0.07 0.00 80 1038.5
20260830152527 78 0.0 0.0 0.00 0.07 0.00 80 1038.6
20260830152024 78 0.0 0.0 0.00 0.07 0.00 80 1038.6
20260830151522 78 0.0 0.0 0.00 0.07 0.00 81 1038.6
20260830151018 78 0.0 0.0 0.00 0.07 0.00 82 1038.6
20260830150516 78 0.0 0.0 0.00 0.07 0.00 83 1038.7
20260830150033 77 0.0 0.0 0.00 0.07 0.00 83 1038.7
20260830145529 77 0.0 0.0 0.00 0.07 0.00 84 1038.6
20260830145027 76 0.0 0.0 0.00 0.07 0.00 85 1038.3
20260830144523 75 0.0 0.0 0.00 0.07 0.00 85 1038.3
20260830144020 75 0.0 0.0 0.00 0.07 0.00 86 1038.3
20260830143517 75 0.0 0.0 0.00 0.07 0.00 87 1038.3
20260830143055 74 0.0 0.0 0.00 0.07 0.00 88 1038.3
20260830142552 74 0.0 0.0 0.00 0.07 0.00 89 1038.3
20260830142027 73 0.0 0.0 0.00 0.07 0.00 90 1038.4
20260830141524 73 0.0 0.0 0.00 0.07 0.00 90 1038.4
20260830141021 72 0.0 0.0 0.00 0.07 0.00 91 1038.4
20260830140518 72 0.0 0.0 0.00 0.07 0.00 91 1038.4
20260830140035 71 0.0 0.0 0.00 0.07 0.00 92 1038.4
20260830135532 71 0.0 0.0 0.00 0.07 0.00 92 1038.6
20260830135027 70 0.0 0.0 0.00 0.07 0.00 92 1038.5
20260830134524 70 0.0 0.0 0.00 0.07 0.00 92 1038.5
20260830134022 69 0.0 0.0 0.00 0.07 0.00 92 1038.5
20260830133518 69 0.0 0.0 0.00 0.07 0.00 92 1038.5
20260830133015 68 0.0 0.0 0.00 0.07 0.00 92 1038.6
20260830132533 68 0.0 0.0 0.00 0.08 0.00 92 1038.7
20260830132028 67 0.0 0.0 0.00 0.09 0.00 92 1038.7
20260830131526 67 0.0 0.0 0.00 0.09 0.00 92 1038.7
20260830131022 67 0.0 0.0 0.00 0.10 0.00 92 1038.6
20260830130540 67 0.0 0.0 0.00 0.11 0.00 92 1038.4
20260830130016 66 0.0 0.0 0.00 0.11 0.00 92 1038.5
20260830125534 66 0.0 0.0 0.00 0.11 0.00 92 1038.7
20260830125031 66 0.0 0.0 0.00 0.12 0.00 92 1038.6
20260830124606 66 0.0 0.0 0.00 0.13 0.00 92 1038.6
20260830124024 65 0.0 0.0 0.00 0.13 0.00 91 1038.4
20260830123521 65 0.0 0.0 0.00 0.13 0.00 91 1038.4
20260830123018 65 0.0 0.0 0.00 0.14 0.00 91 1038.5
20260830122515 65 0.0 0.0 0.00 0.14 0.00 91 1038.5
20260830122033 65 0.0 0.0 0.00 0.15 0.00 91 1038.5
20260830121529 65 0.0 0.0 0.00 0.16 0.00 91 1038.5
20260830121025 65 0.0 0.0 0.00 0.17 0.00 91 1038.5
20260830120522 65 0.0 0.0 0.00 0.17 0.00 91 1038.5
20260830120020 65 0.0 0.0 0.00 0.18 0.00 91 1038.7
20260830115517 65 0.0 0.0 0.00 0.19 0.00 91 1038.9
20260830115034 65 0.0 0.0 0.00 0.19 0.00 91 1038.7
20260830114531 65 0.0 0.0 0.00 0.19 0.00 91 1038.6
20260830114027 65 0.0 0.0 0.00 0.20 0.00 91 1038.4
20260830113524 65 0.0 0.0 0.00 0.25 0.00 91 1038.4
20260830113021 65 0.0 0.0 0.00 0.25 0.00 91 1038.2
20260830112518 66 0.0 0.0 0.00 0.25 0.00 91 1038.5
20260830112035 66 0.0 0.0 0.00 0.25 0.00 91 1038.7
20260830111552 65 0.0 0.0 0.00 0.25 0.00 91 1038.8
20260830111028 65 0.0 0.0 0.00 0.25 0.00 91 1038.7
20260830110525 66 0.0 0.0 0.00 0.25 0.00 91 1038.8
20260830110022 66 0.0 0.0 0.00 0.25 0.00 91 1038.5
20260830105519 66 0.0 0.0 0.00 0.26 0.00 91 1038.6
20260830105016 66 0.0 0.0 0.00 0.26 0.00 91 1038.6
20260830104534 66 0.0 0.0 0.00 0.26 0.00 91 1038.6
20260830104031 66 0.0 0.0 0.00 0.26 0.00 91 1038.7
20260830103527 66 0.0 0.0 0.00 0.27 0.00 91 1038.7
20260830103045 66 0.0 0.0 0.00 0.27 0.00 91 1038.6
20260830102522 66 0.0 0.0 0.00 0.27 0.00 90 1038.6
20260830102019 66 0.0 0.0 0.00 0.27 0.00 90 1038.6
20260830101516 66 0.0 0.0 0.00 0.27 0.00 90 1038.6
20260830101053 66 0.0 0.0 0.00 0.27 0.00 90 1038.8
20260830100529 66 0.0 0.0 0.00 0.27 0.00 90 1038.8
20260830100026 66 0.0 0.0 0.00 0.27 0.00 90 1038.7
20260830095523 66 0.0 0.0 0.00 0.27 0.00 90 1038.7
20260830095021 66 0.0 0.0 0.00 0.27 0.00 90 1038.8
20260830094518 66 0.0 0.0 0.00 0.27 0.00 90 1038.8
20260830094015 66 0.0 0.0 0.00 0.27 0.00 90 1038.7
20260830093532 67 0.0 0.0 0.00 0.27 0.00 90 1038.7
20260830093028 67 0.0 0.0 0.00 0.27 0.00 90 1038.8
20260830092546 67 0.0 0.0 0.00 0.27 0.00 90 1038.9
20260830092022 67 0.0 0.0 0.00 0.27 0.00 90 1038.8
20260830091520 67 0.0 0.0 0.00 0.27 0.00 90 1038.9
20260830091018 67 0.0 0.0 0.00 0.27 0.00 90 1038.9
20260830090535 67 0.0 0.0 0.00 0.27 0.00 90 1038.9
20260830090032 67 0.0 0.0 0.00 0.27 0.00 90 1039.0
20260830085527 67 0.0 0.0 0.00 0.27 0.00 90 1038.9
20260830085025 67 0.0 0.0 0.00 0.27 0.00 90 1038.9
20260830084522 67 0.0 0.0 0.00 0.27 0.00 90 1039.0
20260830084019 67 0.0 0.0 0.00 0.27 0.00 90 1039.0
20260830083516 67 0.0 0.0 0.00 0.27 0.00 90 1039.1
20260830083034 67 0.0 0.0 0.00 0.27 0.00 90 1039.1
20260830082551 67 0.0 0.0 0.00 0.27 0.00 90 1039.1
20260830082026 67 0.0 0.0 0.00 0.27 0.00 90 1039.2
20260830081523 67 0.0 0.0 0.00 0.27 0.00 90 1039.1
20260830081020 67 0.0 0.0 0.00 0.27 0.00 90 1039.2
20260830080517 67 0.0 0.0 0.00 0.27 0.00 89 1039.1
20260830080035 67 0.0 0.0 0.00 0.27 0.00 89 1039.2
20260830075532 67 0.0 0.0 0.00 0.27 0.00 89 1039.3
20260830075028 67 0.0 0.0 0.00 0.27 0.00 89 1039.3
20260830074525 67 0.0 0.0 0.00 0.27 0.00 89 1039.3
20260830074023 67 0.0 0.0 0.00 0.27 0.00 89 1039.3
20260830073519 67 0.0 0.0 0.00 0.27 0.00 89 1039.3
20260830073037 67 0.0 0.0 0.00 0.27 0.00 89 1039.4
20260830072534 67 0.0 0.0 0.00 0.27 0.00 89 1039.4
20260830072052 67 0.0 0.0 0.00 0.27 0.00 89 1039.4
20260830071528 67 0.0 0.0 0.00 0.27 0.00 89 1039.6
20260830071044 67 0.0 0.0 0.00 0.27 0.00 89 1039.5
20260830070542 67 0.0 0.0 0.00 0.27 0.00 89 1039.6
20260830070019 67 0.0 0.0 0.00 0.27 0.00 89 1039.6
20260830065536 67 0.0 0.0 0.00 0.27 0.00 89 1039.6
20260830065034 67 0.0 0.0 0.00 0.27 0.00 88 1039.6
20260830064530 68 0.0 0.0 0.00 0.27 0.00 88 1039.7
20260830064026 68 0.0 0.0 0.00 0.27 0.00 88 1039.7
20260830063543 68 0.0 0.0 0.00 0.27 0.00 88 1039.8
20260830063021 68 0.0 0.0 0.00 0.27 0.00 88 1039.6
20260830062558 68 0.0 0.0 0.00 0.27 0.00 88 1039.6
20260830062034 68 0.0 0.0 0.00 0.27 0.00 88 1039.8
20260830061532 68 0.0 0.0 0.00 0.27 0.00 88 1039.9
20260830061029 68 0.0 0.0 0.00 0.27 0.00 88 1039.9
20260830060526 68 0.0 0.0 0.00 0.27 0.00 89 1040.0
20260830060023 68 0.0 0.0 0.00 0.27 0.00 88 1039.9
20260830055520 68 0.0 0.0 0.00 0.27 0.00 88 1040.1
20260830055037 68 0.0 0.0 0.00 0.27 0.00 88 1040.1
20260830054534 68 0.0 0.0 0.00 0.27 0.00 88 1040.1
20260830054031 68 0.0 0.0 0.00 0.27 0.00 88 1040.1
20260830053527 68 0.0 0.0 0.00 0.27 0.00 88 1040.1
20260830053044 68 0.0 0.0 0.00 0.27 0.00 87 1040.2
20260830052541 68 0.0 0.0 0.00 0.27 0.00 87 1040.3
20260830052038 68 0.0 0.0 0.00 0.27 0.00 87 1040.2
20260830051535 68 0.0 0.0 0.00 0.27 0.00 87 1040.2
20260830051033 68 0.0 0.0 0.00 0.27 0.00 87 1040.2
20260830050529 68 132 0.0 1.7 0.00 0.27 0.00 87 1040.3
20260830050026 68 112 0.9 2.6 0.00 0.27 0.27 87 1040.2
20260830045523 68 0.0 0.0 0.00 0.27 0.27 87 1040.3
20260830045020 68 0.0 0.0 0.00 0.27 0.27 87 1040.3
20260830044538 69 0.0 0.0 0.00 0.27 0.27 86 1040.4
20260830044035 69 0.0 0.0 0.00 0.27 0.27 86 1040.4
20260830043532 69 0.0 0.0 0.00 0.27 0.27 86 1040.5
20260830043029 69 0.0 0.0 0.00 0.27 0.27 86 1040.5
20260830042525 69 0.0 0.0 0.00 0.27 0.27 86 1040.5
20260830042022 69 0.0 0.0 0.00 0.27 0.27 86 1040.4
20260830041539 69 0.0 0.0 0.00 0.27 0.27 86 1040.6
20260830041016 69 0.0 0.0 0.00 0.27 0.27 85 1040.4
20260830040533 69 0.0 0.0 0.00 0.27 0.27 85 1040.5
20260830040030 69 0.0 0.0 0.00 0.27 0.27 85 1040.5
20260830035526 69 0.0 0.0 0.00 0.27 0.27 85 1040.6
20260830035024 69 0.0 0.0 0.00 0.27 0.27 85 1040.6
20260830034541 69 0.0 0.0 0.00 0.27 0.27 85 1040.7
20260830034018 69 0.0 0.0 0.00 0.27 0.27 85 1040.8
20260830033535 69 0.0 0.0 0.00 0.27 0.27 85 1040.7
20260830033032 69 0.0 0.0 0.00 0.27 0.27 85 1040.7
20260830032528 69 0.0 0.0 0.00 0.27 0.27 85 1040.7
20260830032024 69 0.0 0.0 0.00 0.27 0.27 85 1040.8
20260830031521 69 0.0 0.0 0.00 0.27 0.27 84 1040.8
20260830031018 69 0.0 0.0 0.00 0.27 0.27 84 1040.7